Location: *
(46.3500°N, 10.9000°E)
Time: 11:15:07
(UTC+00:00)

Meteor 2-10 Rocket - Pass Details

Date: 09 April 2020
Orbit: 734 x 884 km, 81.2° (Epoch: 23 May)

Event Time Altitude Azimuth Distance (km) Brightness Sun altitude
Exits shadow 20:33:52 67° 111° (ESE) 857 3.4 -24.5°
Maximum altitude 20:34:03 68° 97° (E) 854 3.4 -24.6°
Drops below altitude 10° 20:39:28 10° 16° (NNE) 2,420 6.4 -25.2°
Sets 20:41:56 0° 14° (NNE) 3,381 7.3 -25.5°
